TimeCDT,TemperatureF,Dew PointF,Humidity,Sea Level PressureIn,VisibilityMPH,Wind Direction,Wind SpeedMPH,Gust SpeedMPH,PrecipitationIn,Events,Conditions,WindDirDegrees,DateUTC
12:13 AM,26.6,24.8,93,29.88,10.0,Calm,Calm,-,N/A,,Clear,0,2013-04-25 05:13:00
12:33 AM,26.6,24.8,93,29.89,10.0,Calm,Calm,-,N/A,,Clear,0,2013-04-25 05:33:00
12:52 AM,26.6,24.8,93,29.89,10.0,WSW,3.5,-,N/A,,Clear,250,2013-04-25 05:52:00
1:13 AM,24.8,23.0,93,29.89,10.0,Calm,Calm,-,N/A,,Clear,0,2013-04-25 06:13:00
1:33 AM,24.8,21.2,86,29.90,10.0,Calm,Calm,-,N/A,,Clear,0,2013-04-25 06:33:00
1:52 AM,23.0,21.2,93,29.90,10.0,Calm,Calm,-,N/A,,Clear,0,2013-04-25 06:52:00
2:13 AM,23.0,21.2,93,29.90,10.0,Calm,Calm,-,N/A,,Clear,0,2013-04-25 07:13:00
2:33 AM,21.2,21.2,100,29.90,10.0,Calm,Calm,-,N/A,,Clear,0,2013-04-25 07:33:00
2:53 AM,21.2,19.4,93,29.91,10.0,SW,4.6,-,N/A,,Clear,230,2013-04-25 07:53:00
3:13 AM,21.2,21.2,100,29.92,10.0,SW,3.5,-,N/A,,Scattered Clouds,230,2013-04-25 08:13:00
3:32 AM,24.8,23.0,93,29.92,10.0,WSW,4.6,-,N/A,,Overcast,250,2013-04-25 08:32:00
3:53 AM,24.8,24.8,100,29.92,10.0,SW,3.5,-,N/A,,Overcast,230,2013-04-25 08:53:00
4:13 AM,24.8,24.8,100,29.93,10.0,Calm,Calm,-,N/A,,Overcast,0,2013-04-25 09:13:00
4:32 AM,26.6,24.8,93,29.93,10.0,Calm,Calm,-,N/A,,Mostly Cloudy,0,2013-04-25 09:32:00
4:53 AM,24.8,24.8,100,29.93,5.0,Calm,Calm,-,N/A,,Mostly Cloudy,0,2013-04-25 09:53:00
5:13 AM,24.8,24.8,100,29.94,10.0,SW,3.5,-,N/A,,Mostly Cloudy,220,2013-04-25 10:13:00
5:33 AM,24.8,24.8,100,29.95,10.0,SW,3.5,-,N/A,,Mostly Cloudy,230,2013-04-25 10:33:00
5:53 AM,24.8,24.8,100,29.95,10.0,Calm,Calm,-,N/A,,Overcast,0,2013-04-25 10:53:00
6:12 AM,26.6,24.8,93,29.96,10.0,West,4.6,-,N/A,,Overcast,270,2013-04-25 11:12:00
6:33 AM,26.6,26.6,100,29.96,10.0,West,3.5,-,N/A,,Overcast,260,2013-04-25 11:33:00
6:53 AM,26.6,26.6,100,29.97,10.0,SW,3.5,-,N/A,,Overcast,220,2013-04-25 11:53:00
7:12 AM,28.4,26.6,93,29.98,10.0,West,5.8,-,N/A,,Overcast,270,2013-04-25 12:12:00
7:33 AM,28.4,26.6,93,29.99,10.0,West,5.8,-,N/A,,Overcast,280,2013-04-25 12:33:00
7:53 AM,28.4,26.6,93,30.00,10.0,WSW,4.6,-,N/A,,Overcast,240,2013-04-25 12:53:00
8:12 AM,30.2,26.6,86,30.01,10.0,WNW,5.8,-,N/A,,Overcast,290,2013-04-25 13:12:00
8:33 AM,30.2,26.6,86,30.02,10.0,West,8.1,-,N/A,,Overcast,260,2013-04-25 13:33:00
8:53 AM,30.2,26.6,86,30.02,10.0,West,5.8,-,N/A,,Overcast,270,2013-04-25 13:53:00
9:12 AM,30.2,26.6,86,30.02,10.0,West,4.6,-,N/A,,Overcast,270,2013-04-25 14:12:00
9:33 AM,32.0,28.4,87,30.03,10.0,West,4.6,-,N/A,,Overcast,270,2013-04-25 14:33:00
9:53 AM,33.8,26.6,75,30.03,10.0,West,4.6,-,N/A,,Overcast,260,2013-04-25 14:53:00
10:05 AM,33.8,26.6,75,30.03,10.0,West,4.6,-,N/A,,Overcast,260,2013-04-25 15:05:00
11:03 AM,-9999,-9999,N/A,30.05,-9999.0,West,8.1,-,N/A,,Unknown,260,2013-04-25 16:03:00
11:13 AM,35.6,24.8,65,30.05,10.0,West,5.8,16.1,N/A,,Unknown,270,2013-04-25 16:13:00
11:33 AM,37.4,24.8,60,30.05,10.0,West,6.9,-,N/A,,Mostly Cloudy,280,2013-04-25 16:33:00
11:52 AM,37.4,24.8,60,30.05,10.0,West,8.1,-,N/A,,Overcast,270,2013-04-25 16:52:00
12:13 PM,37.4,23.0,56,30.05,10.0,West,11.5,17.3,N/A,,Mostly Cloudy,270,2013-04-25 17:13:00
12:33 PM,39.2,21.2,49,30.05,10.0,West,6.9,17.3,N/A,,Scattered Clouds,270,2013-04-25 17:33:00
12:52 PM,39.2,21.2,49,30.05,10.0,West,13.8,21.9,N/A,,Scattered Clouds,280,2013-04-25 17:52:00
1:13 PM,39.2,19.4,45,30.05,10.0,WSW,11.5,17.3,N/A,,Mostly Cloudy,250,2013-04-25 18:13:00
1:32 PM,41.0,19.4,42,30.05,10.0,West,8.1,16.1,N/A,,Mostly Cloudy,280,2013-04-25 18:32:00
1:53 PM,41.0,19.4,42,30.05,10.0,West,6.9,-,N/A,,Mostly Cloudy,280,2013-04-25 18:53:00
2:13 PM,39.2,19.4,45,30.05,10.0,West,10.4,17.3,N/A,,Mostly Cloudy,260,2013-04-25 19:13:00
2:32 PM,42.8,19.4,39,30.05,10.0,WSW,9.2,16.1,N/A,,Scattered Clouds,250,2013-04-25 19:32:00
2:53 PM,42.8,19.4,39,30.04,10.0,SW,6.9,-,N/A,,Scattered Clouds,230,2013-04-25 19:53:00
3:13 PM,39.2,19.4,45,30.04,10.0,WSW,3.5,-,N/A,,Scattered Clouds,240,2013-04-25 20:13:00
3:32 PM,42.8,17.6,36,30.04,10.0,SW,16.1,19.6,N/A,,Mostly Cloudy,230,2013-04-25 20:32:00
3:53 PM,42.8,17.6,36,30.04,10.0,SW,6.9,-,N/A,,Scattered Clouds,220,2013-04-25 20:53:00
4:13 PM,42.8,17.6,36,30.04,10.0,SW,10.4,-,N/A,,Clear,230,2013-04-25 21:13:00
4:32 PM,42.8,17.6,36,30.04,10.0,SW,9.2,-,N/A,,Scattered Clouds,230,2013-04-25 21:32:00
4:53 PM,42.8,17.6,36,30.04,10.0,WSW,5.8,17.3,N/A,,Clear,240,2013-04-25 21:53:00
5:13 PM,42.8,17.6,36,30.04,10.0,SW,6.9,17.3,N/A,,Clear,220,2013-04-25 22:13:00
5:32 PM,42.8,15.8,34,30.04,10.0,SW,9.2,17.3,N/A,,Scattered Clouds,230,2013-04-25 22:32:00
5:53 PM,42.8,15.8,34,30.04,10.0,SW,8.1,-,N/A,,Clear,220,2013-04-25 22:53:00
6:13 PM,42.8,17.6,36,30.04,10.0,SW,8.1,-,N/A,,Clear,230,2013-04-25 23:13:00
6:32 PM,42.8,15.8,34,30.04,10.0,SW,6.9,-,N/A,,Clear,220,2013-04-25 23:32:00
6:53 PM,42.8,15.8,34,30.04,10.0,SW,10.4,-,N/A,,Clear,230,2013-04-25 23:53:00
7:13 PM,42.8,17.6,36,30.04,10.0,SW,8.1,-,N/A,,Clear,230,2013-04-26 00:13:00
7:33 PM,41.0,17.6,39,30.04,10.0,SW,5.8,-,N/A,,Clear,220,2013-04-26 00:33:00
7:53 PM,39.2,17.6,42,30.04,10.0,SSW,4.6,-,N/A,,Clear,200,2013-04-26 00:53:00
8:13 PM,39.2,19.4,45,30.04,10.0,SSW,4.6,-,N/A,,Clear,210,2013-04-26 01:13:00
8:32 PM,37.4,19.4,48,30.05,10.0,SSW,5.8,-,N/A,,Clear,210,2013-04-26 01:32:00
8:53 PM,37.4,19.4,48,30.05,10.0,South,4.6,-,N/A,,Clear,190,2013-04-26 01:53:00
9:13 PM,37.4,19.4,48,30.06,10.0,South,4.6,-,N/A,,Clear,180,2013-04-26 02:13:00
9:32 PM,37.4,19.4,48,30.07,10.0,SSW,4.6,-,N/A,,Clear,210,2013-04-26 02:32:00
9:53 PM,37.4,19.4,48,30.07,10.0,South,4.6,-,N/A,,Clear,180,2013-04-26 02:53:00
10:13 PM,37.4,19.4,48,30.07,10.0,SSW,4.6,-,N/A,,Clear,200,2013-04-26 03:13:00
10:32 PM,35.6,19.4,52,30.07,10.0,SSW,4.6,-,N/A,,Clear,210,2013-04-26 03:32:00
10:53 PM,35.6,19.4,52,30.06,10.0,South,4.6,-,N/A,,Clear,180,2013-04-26 03:53:00
11:13 PM,35.6,17.6,48,30.06,10.0,South,4.6,-,N/A,,Clear,180,2013-04-26 04:13:00
11:29 PM,35.6,17.6,48,30.06,10.0,South,3.5,-,N/A,,Clear,190,2013-04-26 04:29:00
11:53 PM,35.6,17.6,48,30.06,10.0,South,3.5,-,N/A,,Clear,170,2013-04-26 04:53:00